FW0788 Weather Reports


Display with metric or nautical units.
time (UTC)temp
F
wind
direction
speed
MPH
gust
MPH
rain 1hr
in
rain 24hr
in
rain mn
in
humidity
%
barometer
mb
20260503004553 62 296 0.0 0.0 0.02 0.02 0.02 91 1012.3
20260503003100 62 296 0.0 0.0 0.00 0.00 0.00 92 1012.8
20260503001607 62 296 0.0 0.0 0.00 0.00 0.00 92 1012.9
20260503000049 61 296 0.0 0.0 0.00 0.00 0.00 92 1012.9
20260502234548 60 296 0.0 0.0 0.00 0.00 0.00 91 1013.2
20260502233039 60 296 0.0 0.0 0.00 0.00 0.00 91 1013.4
20260502231537 59 296 0.0 0.0 0.00 0.00 0.00 91 1013.5
20260502230036 58 296 0.0 0.0 0.00 0.00 0.00 91 1013.4
20260502224529 58 298 0.0 0.0 0.00 0.00 0.00 91 1013.4
20260502223032 58 298 0.0 0.0 0.00 0.00 0.00 91 1013.3
20260502221528 57 298 0.0 0.0 0.00 0.00 0.00 91 1013.2
20260502220032 57 298 0.0 0.0 0.00 0.00 0.00 91 1013.2
20260502214524 57 300 0.0 0.0 0.00 0.00 0.00 91 1013.1
20260502213023 57 300 0.0 0.0 0.00 0.00 0.00 91 1013.3
20260502211522 57 300 0.0 0.0 0.00 0.00 0.00 91 1013.3
20260502210019 57 300 0.0 0.0 0.00 0.00 0.00 91 1013.3
20260502204520 57 300 0.0 0.0 0.00 0.00 0.00 91 1013.2
20260502203022 57 300 0.0 0.0 0.00 0.00 0.00 90 1013.2
20260502201519 57 300 0.0 0.0 0.00 0.00 0.00 90 1013.3
20260502200015 57 300 0.0 0.0 0.00 0.00 0.00 90 1013.3
20260502194513 57 300 0.0 0.0 0.00 0.00 0.00 90 1013.5
20260502193012 57 300 0.0 0.0 0.00 0.00 0.00 90 1013.6
20260502191511 57 300 0.0 0.0 0.00 0.00 0.00 90 1013.6
20260502190011 57 300 0.0 0.0 0.00 0.00 0.00 90 1013.4
20260502184508 57 300 0.0 0.0 0.00 0.00 0.00 90 1013.5
20260502183008 57 300 0.0 0.0 0.00 0.00 0.00 90 1013.4
20260502181508 57 300 0.0 0.0 0.00 0.00 0.00 89 1013.5
20260502163057 56 300 0.0 0.0 0.00 0.00 0.00 91 1014.3
20260502161551 56 300 0.0 0.0 0.00 0.00 0.00 91 1014.5
20260502151542 54 290 0.0 0.0 0.00 0.00 0.00 92 1015.0
20260502123024 55 289 0.0 0.0 0.00 0.00 0.00 90 1016.1
20260502121527 55 292 0.0 0.0 0.00 0.00 0.00 90 1016.2
20260502114522 57 292 0.0 0.0 0.00 0.00 0.00 89 1016.4
20260502113024 57 292 0.0 0.0 0.00 0.00 0.00 89 1016.3
20260502111521 57 292 0.0 0.0 0.00 0.00 0.00 88 1016.3
20260502110024 58 291 0.0 0.0 0.00 0.00 0.00 89 1016.3
20260502104520 58 291 0.0 0.0 0.00 0.00 0.00 88 1016.4
20260502103021 58 291 0.0 0.0 0.00 0.00 0.00 88 1016.3
20260502101518 58 291 0.0 0.0 0.00 0.00 0.00 88 1016.3
20260502091517 59 291 0.0 0.0 0.00 0.00 0.00 87 1016.2
20260502070100 65 291 0.0 0.0 0.00 0.00 0.00 77 1015.7
20260502064603 65 291 0.0 0.0 0.00 0.00 0.00 75 1015.8
20260502063058 66 291 0.0 0.0 0.00 0.00 0.00 74 1015.7
20260502061556 66 291 0.0 0.0 0.00 0.00 0.00 73 1015.8
20260502060057 67 291 0.0 0.0 0.00 0.00 0.00 71 1015.9
20260502054558 68 291 0.0 0.0 0.00 0.00 0.00 70 1016.0
20260502053109 68 286 0.0 0.0 0.00 0.00 0.00 69 1016.0
20260502051552 69 290 0.0 1.0 0.00 0.00 0.00 67 1016.1
20260502050051 70 284 0.0 0.0 0.00 0.00 0.00 68 1016.1
20260502044550 69 286 0.0 0.0 0.00 0.00 0.00 69 1016.2
20260502043055 69 284 0.0 0.0 0.00 0.00 0.00 70 1016.3
20260502041548 69 267 0.0 0.0 0.00 0.00 0.00 69 1016.4
20260502040048 69 267 0.0 0.0 0.00 0.00 0.00 69 1016.4
20260502034546 69 258 0.0 0.0 0.00 0.00 0.00 70 1016.5
20260502033050 69 281 0.0 0.0 0.00 0.00 0.00 69 1016.6
20260502031544 69 284 0.0 0.0 0.00 0.00 0.00 67 1016.8
20260502030053 69 284 0.0 0.0 0.00 0.00 0.00 67 1017.0
20260502024543 70 274 0.0 0.0 0.00 0.00 0.00 67 1017.2
20260502023052 70 275 0.0 2.0 0.00 0.00 0.00 67 1017.4
20260502021541 70 275 0.0 2.0 0.00 0.00 0.00 66 1017.7
20260502020032 70 298 0.0 1.0 0.00 0.00 0.00 67 1017.9
20260502014534 69 291 0.0 0.0 0.00 0.00 0.00 69 1018.2
20260502013025 69 298 0.0 0.0 0.00 0.00 0.00 69 1018.4
20260502011523 68 294 0.0 0.0 0.00 0.00 0.00 68 1018.7
20260502010021 68 306 0.0 2.0 0.00 0.00 0.00 67 1018.8